Pierceville, KS

3:29 PM CST on January 19, 2017 (GMT -0600)
Garden City Regional

Weather History for KGCK - January, 2012

Change the Weather History Date:

Friday, January 20, 2012

  Actual Average Record
Temperature  
Mean Temperature 34 °F 31 °F  
Max Temperature 53 °F 44 °F 78 °F (1986)
Min Temperature 16 °F 18 °F -10 °F (1978)
Degree Days  
Heating Degree Days 30 34  
Month to date heating degree days 680  
Since 1 July heating degree days 2803  
Cooling Degree Days 0 0  
Month to date cooling degree days 0  
Year to date cooling degree days 0  
Moisture  
Dew Point 16 °F    
Average Humidity 63    
Maximum Humidity 81    
Minimum Humidity 34    
Precipitation  
Precipitation 0.00 in 0.01 in 0.47 in (2007)
Month to date precipitation 0.21  
Year to date precipitation 0.21  
Sea Level Pressure  
Sea Level Pressure 29.90 in    
Wind  
Wind Speed 9 mph (NNE)    
Max Wind Speed 18 mph    
Max Gust Speed 22 mph    
Visibility 10 miles    
Events      
T = Trace of Precipitation, MM = Missing Value Source: NWS Daily Summary

Daily Weather History Graph

Daily Weather History Graph

Search for Another Location

Airport or City:

Trip Planner

Search our weather history database for the weather conditions in past years. The results will help you decide how hot, cold, wet, or windy it might be!

Date:

Astronomy

Jan. 20, 2012 Rise Set
Actual Time 7:55 AM CST 5:52 PM CST
Civil Twilight 7:27 AM CST 6:20 PM CST
Nautical Twilight 6:55 AM CST 6:52 PM CST
Astronomical Twilight 6:23 AM CST 7:24 PM CST
Moon 5:33 AM CST (1/20) 3:27 PM CST (1/20)
Length of Visible Light 10h 53m
Length of Day
9h 56m
Waning Crescent, 8% of the Moon is Illuminated
Jan 20
Waning Crescent
Jan 23
New
Jan 30
First Quarter
Feb 7
Full
Feb 14
Last Quarter

Hourly Weather History & Observations

Time (CST) Temp. Windchill Dew Point Humidity Pressure Visibility Wind Dir Wind Speed Gust Speed Precip Events Conditions
12:54 AM 19.9 °F 13.4 °F 12.9 °F 74% 29.83 in 10.0 mi South 4.6 mph - N/A   Clear
1:54 AM 21.9 °F 10.4 °F 14.0 °F 72% 29.77 in 10.0 mi SSE 11.5 mph - N/A   Clear
2:54 AM 21.0 °F 8.6 °F 14.0 °F 74% 29.74 in 10.0 mi South 12.7 mph - N/A   Clear
3:54 AM 21.0 °F 9.9 °F 15.1 °F 78% 29.71 in 10.0 mi SSE 10.4 mph - N/A   Clear
4:54 AM 21.0 °F 12.4 °F 15.1 °F 78% 29.74 in 10.0 mi NE 6.9 mph - N/A   Clear
5:54 AM 19.9 °F 10.1 °F 14.0 °F 78% 29.77 in 10.0 mi NE 8.1 mph - N/A   Clear
6:54 AM 17.1 °F 3.0 °F 12.0 °F 81% 29.80 in 10.0 mi NE 13.8 mph - N/A   Clear
7:54 AM 16.0 °F 3.6 °F 10.9 °F 81% 29.81 in 10.0 mi NE 10.4 mph - N/A   Clear
8:54 AM 17.1 °F - 12.0 °F 81% 29.82 in 10.0 mi Calm Calm - N/A   Clear
9:54 AM 19.9 °F 11.1 °F 12.9 °F 74% 29.85 in 10.0 mi WNW 6.9 mph - N/A   Clear
10:54 AM 26.1 °F 16.2 °F 16.0 °F 66% 29.84 in 9.0 mi WNW 10.4 mph - N/A   Clear
11:54 AM 32.0 °F 23.0 °F 18.0 °F 56% 29.83 in 10.0 mi WNW 11.5 mph - N/A   Clear
12:54 PM 35.1 °F 26.4 °F 19.9 °F 54% 29.83 in 10.0 mi WSW 12.7 mph - N/A   Clear
1:54 PM 43.0 °F 37.7 °F 23.0 °F 45% 29.82 in 10.0 mi West 9.2 mph - N/A   Clear
2:54 PM 51.1 °F - 25.0 °F 36% 29.82 in 10.0 mi NNE 5.8 mph - N/A   Scattered Clouds
3:54 PM 53.1 °F - 25.0 °F 34% 29.86 in 10.0 mi NE 18.4 mph 21.9 mph N/A   Clear
4:54 PM 43.0 °F 35.4 °F 21.0 °F 42% 29.93 in 10.0 mi NE 16.1 mph - N/A   Scattered Clouds
5:54 PM 35.1 °F 28.6 °F 18.0 °F 50% 30.01 in 10.0 mi NNE 8.1 mph - N/A   Scattered Clouds
6:54 PM 30.9 °F 20.2 °F 17.1 °F 57% 30.08 in 10.0 mi NNE 15.0 mph - N/A   Mostly Cloudy
7:54 PM 28.9 °F 18.6 °F 15.1 °F 56% 30.11 in 10.0 mi NNE 12.7 mph - N/A   Partly Cloudy
8:54 PM 27.0 °F 15.6 °F 12.9 °F 56% 30.17 in 10.0 mi NNE 13.8 mph - N/A   Clear
9:54 PM 24.1 °F 14.4 °F 12.0 °F 60% 30.18 in 10.0 mi NE 9.2 mph - N/A   Clear
10:54 PM 21.9 °F 11.0 °F 10.9 °F 63% 30.18 in 10.0 mi NE 10.4 mph - N/A   Clear
11:54 PM 19.9 °F 12.1 °F 10.0 °F 65% 30.18 in 10.0 mi NE 5.8 mph - N/A   Clear